Wind_Speed
2 4 6 7 7 9 10 10 12 13 13 14 14 15 15 16 17 19 20 20 20 18 16 14 14 13 12 12 11 11 11 11 12 12 13 13 13 13 12 12 11 11 11 10 11 11 11 10 10 10 10 10 10 9 9 9 9 9 9 8 8 8 7 7 7 7 6 6 6 6 6 6 7 7 7 8 8 9 10 11 12 12 13 13 14
2 4 6 7 8 9 10 10 11 12 12 13 13 14 15 16 17 18 20 21 20 18 16 14 13 12 12 12 11 11 11 11 11 11 12 12 12 12 12 12 11 11 10 11 11 11 11 11 11 11 11 10 10 10 9 9 9 8 8 8 8 8 8 8 8 7 6 6 6 6 6 6 6 7 7 8 8 10 11 11 12 13 13 13 14
2 4 6 8 8 9 10 10 10 11 11 12 12 13 14 15 17 18 20 21 20 19 16 14 12 11 12 11 11 11 11 10 11 11 11 12 12 12 12 12 11 11 11 11 11 11 11 11 11 11 11 10 10 9 9 8 8 8 8 8 8 8 9 8 8 7 7 7 6 6 6 6 7 8 8 8 9 10 11 12 12 13 13 14 14
2 4 6 8 9 10 10 11 10 11 11 11 11 12 13 15 16 18 19 20 20 19 16 14 12 11 11 11 11 11 11 10 10 11 11 11 12 12 12 12 12 12 11 11 11 11 11 12 12 11 11 10 9 9 8 7 7 7 8 9 9 9 9 8 7 8 7 7 7 7 7 8 9 9 9 9 10 10 11 11 12 12 13 14 15
2 4 6 8 9 10 10 11 11 11 10 10 10 11 12 14 16 17 19 19 20 19 17 14 11 10 10 10 10 10 10 10 10 10 11 11 11 12 12 12 12 12 12 12 12 12 12 12 12 12 11 10 9 8 8 7 7 7 8 10 9 8 8 8 8 8 8 8 8 8 9 10 10 10 10 10 11 11 11 12 12 13 14 15 16
1 4 6 8 9 10 10 11 11 11 11 11 10 10 12 14 16 17 18 19 19 18 16 13 11 10 9 9 10 10 10 10 10 10 10 11 11 12 12 12 13 13 12 12 12 12 12 12 12 12 11 10 9 8 8 8 7 7 8 9 8 7 8 8 8 8 8 8 8 9 9 9 10 10 11 11 12 12 12 13 13 14 15 16 17
2 4 6 7 9 10 11 11 11 11 11 11 10 11 12 14 16 17 18 19 19 17 15 12 10 10 9 9 9 9 10 10 10 10 10 11 11 11 12 12 13 13 13 13 12 12 12 12 12 11 11 9 8 8 8 7 7 7 8 8 8 7 8 8 8 8 8 9 9 9 9 10 10 11 12 12 12 12 13 14 14 15 15 16 18
3 5 6 7 8 10 11 11 11 11 11 11 11 11 13 14 16 17 17 18 18 16 14 10 9 9 9 9 9 9 10 10 10 10 10 10 11 11 12 12 13 13 13 13 13 12 12 12 11 11 10 9 8 7 7 7 7 7 7 8 7 7 8 8 8 8 8 8 8 9 10 10 10 12 12 12 12 13 14 15 15 15 16 17 18
5 5 6 7 8 10 11 12 11 11 11 11 11 12 13 15 16 17 17 17 17 15 13 10 8 9 9 9 9 10 10 10 10 10 10 10 10 11 12 12 12 13 13 13 13 13 12 12 11 10 10 9 8 7 7 7 7 7 7 8 8 8 8 8 8 8 8 8 9 9 10 11 11 13 13 13 13 14 15 15 15 15 16 17 18
5 6 7 7 9 10 11 12 12 11 11 11 11 12 14 15 16 16 16 16 15 15 13 10 9 9 9 9 10 10 10 10 10 10 10 10 10 10 11 11 12 12 12 13 13 13 13 12 11 10 9 9 8 8 7 7 7 7 8 8 8 8 8 8 8 8 9 9 10 10 11 12 13 14 15 15 15 16 16 16 17 17 18 19 20
6 7 8 8 9 10 11 12 12 11 11 11 11 12 13 15 16 15 15 14 14 14 13 11 9 9 9 10 10 11 11 10 10 10 10 9 10 10 10 11 11 11 12 12 12 13 13 12 11 11 10 9 8 8 7 7 8 8 8 8 8 8 8 9 9 9 10 10 11 12 13 14 14 15 16 17 17 17 17 18 18 19 20 21 21
7 9 9 9 11 11 11 11 12 11 11 11 11 11 13 14 15 14 14 13 13 13 12 11 10 10 10 11 11 11 11 11 10 9 9 9 9 9 10 10 11 11 11 12 12 12 13 12 12 11 10 9 8 8 7 7 8 8 8 8 8 8 8 8 9 9 10 11 12 13 14 15 15 16 17 18 18 18 19 19 19 20 20 21 22
9 10 10 11 12 12 12 12 12 11 11 11 11 11 12 13 14 13 13 12 12 12 12 11 11 10 10 11 12 12 12 11 10 9 9 9 9 9 9 10 10 11 11 11 12 12 12 12 12 11 10 10 9 9 8 7 9 9 8 8 8 9 9 9 9 10 11 12 13 14 15 16 16 17 18 19 19 19 20 20 20 21 21 22 23
11 11 11 11 12 12 12 12 12 12 11 11 10 10 11 12 12 12 12 11 12 12 12 11 11 11 11 11 12 11 11 11 10 9 9 8 8 8 8 9 10 10 11 11 11 11 11 11 11 11 11 11 10 9 8 8 9 9 9 8 9 9 10 10 11 11 12 13 14 15 16 17 18 18 19 20 20 21 21 22 22 22 23 24 25
12 11 11 11 11 11 12 12 12 12 11 11 10 10 11 11 12 12 11 11 12 12 12 12 11 11 11 11 11 11 11 10 10 9 8 8 8 8 8 8 9 10 10 11 10 10 11 11 11 11 11 11 10 9 8 8 9 9 10 9 9 10 10 11 11 12 14 15 15 16 17 18 19 19 20 21 21 22 22 23 23 24 24 25 25
13 12 11 11 11 12 12 12 12 12 12 11 10 10 10 11 11 12 12 13 13 12 12 12 12 11 11 11 11 11 10 10 9 9 8 7 7 7 7 8 8 9 10 10 10 10 11 11 11 11 11 11 10 9 8 9 10 9 10 10 10 10 10 11 12 13 14 15 16 17 18 19 19 19 19 20 21 22 23 23 24 24 25 25 26
13 13 11 11 12 13 12 12 12 12 12 12 11 10 10 11 11 12 13 14 14 14 13 12 12 12 11 11 11 10 10 9 9 8 8 7 7 7 7 8 8 9 9 10 11 11 11 11 11 11 11 11 10 9 9 10 11 10 10 11 11 11 11 12 12 13 14 15 16 16 17 18 18 18 19 20 21 22 22 23 23 24 24 25 26
13 13 11 12 13 12 11 12 12 12 12 12 12 11 11 11 11 12 13 15 16 15 14 13 13 12 11 11 11 10 9 8 8 7 7 7 7 7 7 7 8 8 9 10 10 11 11 11 11 11 11 11 10 10 10 11 12 12 11 12 12 11 12 12 13 13 14 14 15 16 16 17 18 19 19 20 21 22 22 23 23 23 24 25 26
13 13 12 12 12 11 11 11 11 12 12 12 13 12 11 11 12 13 14 15 16 16 15 14 14 13 12 11 11 10 9 8 7 6 6 6 7 7 7 7 7 8 8 9 10 10 10 10 11 11 11 11 11 10 11 12 12 12 11 11 12 11 12 13 13 14 14 14 15 16 17 17 19 19 20 21 21 22 22 23 23 24 24 25 26
14 13 13 12 12 12 12 11 11 11 12 12 13 13 12 12 13 13 14 15 16 17 16 15 14 13 12 11 10 9 8 7 6 6 5 6 6 6 6 6 7 7 8 9 9 9 10 10 11 11 11 11 10 11 12 12 12 11 11 11 11 12 12 13 14 14 14 15 16 17 17 18 19 20 21 21 21 22 22 23 23 24 25 25 26
13 13 12 12 13 14 14 12 11 10 11 12 13 14 14 14 14 14 15 16 17 17 16 16 15 14 13 11 10 9 8 7 6 5 5 6 6 5 5 6 6 7 8 8 9 9 9 10 10 10 10 10 10 11 12 12 11 11 11 11 12 12 13 14 14 15 15 16 16 17 18 19 19 20 21 21 21 21 22 23 24 24 25 26 27
12 12 12 13 14 16 16 15 14 12 12 13 14 14 14 15 15 15 15 16 17 17 17 16 15 14 13 12 11 9 8 7 6 5 5 5 5 5 5 6 6 7 8 8 9 8 9 10 10 10 10 10 10 11 13 12 11 10 11 12 13 14 14 14 15 15 16 16 17 17 18 19 20 20 21 21 20 21 22 23 24 25 26 27 28
13 14 15 15 16 16 16 17 17 16 15 15 16 15 15 15 15 15 16 17 18 18 17 16 15 14 14 13 11 10 8 7 6 6 5 5 5 5 6 6 7 7 8 8 8 9 10 10 10 10 10 10 10 11 13 12 11 11 12 14 14 15 15 14 15 15 16 17 17 18 18 19 19 20 20 19 19 21 22 23 24 25 26 27 28
15 17 19 21 22 20 17 17 18 18 17 17 17 16 16 15 15 16 16 17 19 19 18 17 16 15 15 14 13 11 10 8 7 7 7 6 6 6 6 7 7 8 8 8 9 10 11 11 11 11 10 10 10 12 13 13 12 12 14 14 14 15 15 14 15 16 16 17 17 18 18 18 19 19 19 19 19 21 22 24 25 25 26 27 27
17 19 22 24 24 22 19 18 18 18 17 16 16 16 16 16 16 16 16 18 19 19 18 17 16 16 15 14 13 12 11 10 9 9 8 8 8 7 8 8 8 8 8 9 10 11 12 12 11 10 10 10 10 12 14 15 14 14 14 14 14 15 15 15 15 16 16 17 17 18 18 18 18 18 18 19 20 21 23 24 25 25 25 26 27
17 19 21 22 22 20 18 18 19 18 17 16 16 15 15 16 17 16 17 18 19 19 18 17 16 16 15 14 13 13 12 11 11 11 10 10 10 10 9 9 8 8 9 9 10 11 12 12 11 10 10 10 11 14 16 16 15 14 14 14 14 15 15 15 16 16 16 16 17 18 18 18 18 18 19 20 21 22 23 24 24 25 25 26 27
17 18 19 19 19 18 18 19 19 18 16 15 14 14 14 15 16 16 17 18 18 18 17 17 16 16 15 15 14 14 13 12 12 12 12 12 12 11 10 9 8 9 9 10 10 11 11 11 11 11 11 12 13 15 17 16 14 13 13 14 14 15 15 15 16 16 16 16 17 17 18 18 18 19 20 21 22 23 23 23 24 24 26 27 28
15 15 16 16 16 17 18 19 19 17 15 14 13 13 13 14 15 16 16 17 17 17 17 17 16 16 16 15 15 15 15 13 13 13 13 13 12 12 11 9 9 9 9 10 9 9 10 11 12 12 12 13 14 15 17 16 14 13 14 15 15 15 15 15 16 16 16 16 17 17 17 18 19 20 21 21 22 22 22 23 24 26 27 28 28
15 14 14 15 17 17 17 19 19 17 14 13 13 13 13 14 14 15 16 17 17 17 17 17 17 17 16 16 16 16 16 14 14 13 13 13 12 12 10 9 9 10 9 9 8 8 10 12 13 13 13 13 15 16 16 16 14 14 15 16 16 15 15 15 16 16 16 17 17 17 17 18 20 21 21 21 21 21 22 23 25 27 28 28 29
15 14 16 17 19 19 18 17 18 16 14 12 13 13 13 13 14 15 16 16 17 17 17 17 17 17 17 17 17 17 16 15 14 14 13 13 12 11 10 10 10 10 9 9 8 9 11 13 15 15 13 14 15 16 16 15 14 14 15 16 16 15 15 15 15 16 16 17 17 17 18 19 20 21 21 21 21 21 23 25 26 27 28 29 29
16 15 17 19 20 20 18 17 17 16 14 13 13 14 13 13 13 14 15 16 16 16 17 17 17 18 18 18 18 17 17 16 15 14 14 13 12 11 11 11 11 10 9 8 8 10 12 14 16 15 14 14 15 16 16 14 13 14 15 16 16 16 15 15 15 16 16 16 17 17 18 20 21 21 21 21 21 22 24 26 27 28 28 28 29
17 17 18 19 22 21 19 17 17 15 13 13 14 14 14 13 13 14 15 16 16 16 17 17 18 18 19 18 18 18 17 16 16 16 15 14 13 12 12 12 11 10 9 8 9 10 13 15 16 16 16 15 16 16 15 13 13 14 15 15 16 16 16 15 15 16 16 16 17 17 19 20 20 20 20 21 22 23 24 26 27 28 28 29 29
18 17 18 20 22 21 18 17 16 14 13 14 15 16 16 15 14 15 16 16 17 17 17 18 18 18 19 19 19 19 18 17 17 16 15 14 14 14 13 12 11 10 9 8 9 11 13 15 16 16 16 16 16 16 14 13 13 14 15 15 15 16 16 16 16 16 16 17 17 18 19 20 20 20 20 21 22 23 24 25 27 27 28 29 30
19 18 19 21 20 19 18 16 16 14 14 16 17 18 17 15 14 15 16 17 17 18 18 18 18 18 18 19 19 19 18 18 17 16 15 14 14 14 13 12 12 10 9 9 10 12 14 15 16 16 15 15 14 13 13 13 14 15 15 15 15 16 16 16 16 16 17 17 18 19 20 20 19 19 20 21 22 23 24 25 27 28 29 30 31
20 20 20 20 19 18 17 16 16 15 16 17 18 19 18 16 14 15 16 17 19 19 20 20 19 19 18 19 19 19 19 18 17 15 15 14 14 14 13 12 12 11 11 11 12 13 15 16 16 16 15 13 12 11 12 14 15 15 15 15 15 16 16 15 15 16 17 18 18 19 20 20 19 19 20 21 22 23 24 26 27 28 30 31 32
21 21 20 18 17 18 17 17 17 17 17 18 19 20 19 17 16 16 17 18 19 20 21 21 21 20 19 18 19 19 18 18 17 15 14 14 14 14 12 12 12 12 12 13 14 15 15 16 17 16 14 13 12 11 13 15 15 15 15 15 15 16 15 14 14 15 17 18 18 20 20 20 19 20 20 21 23 24 25 26 28 29 30 31 32
22 20 18 17 17 18 18 18 18 18 19 20 21 21 20 19 18 18 18 19 20 21 21 21 21 21 19 18 18 18 18 17 16 15 14 14 14 13 12 13 13 13 13 14 15 15 16 17 17 16 15 13 12 13 15 16 15 15 15 15 15 15 14 13 14 15 16 17 19 19 19 19 19 20 21 22 23 24 26 27 28 29 30 31 32
21 19 17 17 18 19 19 19 20 20 21 21 22 22 21 21 21 20 19 19 21 21 20 21 21 21 19 18 18 18 17 16 16 14 13 13 13 13 13 13 14 13 14 14 15 16 16 17 17 17 15 14 13 15 16 16 15 15 15 15 15 15 14 13 13 14 16 17 18 18 18 18 19 20 21 22 23 25 26 27 29 30 31 32 32
21 20 18 18 19 21 21 21 22 22 23 23 23 23 22 22 23 22 20 20 20 20 20 21 21 21 20 18 18 18 17 17 16 14 13 13 13 14 14 14 14 15 15 15 16 16 16 17 17 17 16 14 15 17 17 16 15 15 15 15 16 15 13 13 13 14 16 17 18 18 18 18 19 19 20 22 23 25 26 28 29 30 31 32 33
24 21 19 18 20 21 23 24 24 23 24 24 24 23 22 23 24 23 22 20 20 21 21 21 21 21 20 19 18 18 18 17 16 15 14 14 14 14 15 15 15 16 16 16 16 17 17 17 18 18 16 15 16 18 17 16 15 15 16 16 16 14 13 13 14 15 16 18 18 18 17 18 18 19 21 22 23 25 27 28 30 31 32 32 33
26 22 18 18 20 23 25 25 25 25 25 26 24 23 23 24 25 24 23 21 21 22 22 21 21 21 20 19 18 18 18 17 16 15 15 15 15 15 15 15 16 16 16 16 16 17 17 18 18 18 16 14 16 18 17 16 15 16 16 16 16 14 13 14 14 15 17 18 18 17 17 18 18 19 21 23 24 26 27 28 30 31 32 33 34
26 22 19 19 21 23 24 24 25 26 27 27 25 24 25 25 24 23 22 22 23 23 23 22 21 21 20 20 19 18 18 17 17 17 16 16 16 15 15 16 16 16 16 15 16 17 17 18 19 17 15 15 16 17 18 16 16 16 16 16 16 14 13 14 15 16 18 18 18 17 17 18 18 20 21 23 25 26 28 29 31 32 33 34 34
28 25 22 21 22 21 21 21 23 26 27 27 26 26 26 25 23 23 23 24 25 24 23 23 22 20 20 20 19 18 18 18 18 18 17 17 16 15 15 16 16 15 15 15 16 17 18 18 18 17 15 15 16 17 17 16 16 16 16 16 15 14 13 15 16 17 18 18 18 17 18 19 20 21 22 24 26 27 29 30 32 33 34 35 36
31 27 23 22 22 22 22 22 23 26 28 28 27 28 27 25 24 25 26 26 25 24 24 23 22 21 20 20 19 18 18 19 19 19 19 17 16 16 17 17 16 15 15 15 16 17 17 18 17 16 15 15 16 16 16 16 16 16 16 15 14 13 14 16 17 18 18 18 18 18 18 20 21 22 24 25 27 29 31 32 33 34 35 36 37
33 28 24 23 23 24 25 24 25 28 29 28 29 29 29 28 27 28 28 26 25 25 24 24 22 21 21 20 19 18 18 19 19 20 19 18 17 18 18 18 17 15 15 16 16 16 17 17 16 15 15 15 15 15 16 16 16 16 15 15 14 13 15 17 18 18 18 18 18 18 19 20 22 24 25 27 29 31 32 33 35 36 37 38 39
33 28 25 24 24 25 25 23 24 28 29 29 29 28 28 28 28 29 28 26 26 27 26 25 23 22 21 21 20 19 19 19 20 20 20 19 19 19 18 18 17 16 16 16 16 16 17 17 16 15 15 14 14 15 17 16 16 16 15 14 13 14 16 17 18 18 18 18 18 19 20 21 23 24 26 28 30 32 34 35 36 37 38 39 40
31 28 28 28 28 27 26 25 24 27 30 30 29 27 26 27 28 28 27 27 28 29 28 26 24 23 22 21 21 20 19 19 19 20 20 20 20 19 19 18 18 18 17 16 15 15 16 17 16 15 14 13 13 15 16 16 16 15 14 13 14 15 17 18 18 19 18 19 19 20 21 22 23 25 27 29 32 33 35 36 37 38 39 40 41
29 28 29 30 30 30 28 27 26 27 30 31 30 28 27 28 28 28 28 28 29 29 28 26 25 24 22 21 21 20 20 19 19 20 21 21 20 19 19 18 19 18 16 16 15 15 16 17 16 15 14 14 14 15 16 15 15 14 13 13 15 16 18 18 19 19 19 19 20 21 22 23 24 26 28 30 33 34 36 37 39 39 40 41 42
29 28 28 28 30 30 28 25 26 28 30 32 31 30 31 31 31 30 30 30 29 29 28 27 26 23 21 20 21 20 19 19 19 21 22 21 20 19 19 18 18 17 15 15 15 15 16 16 16 16 14 14 15 15 15 15 14 13 13 14 16 17 18 19 20 20 20 20 21 22 23 23 24 26 29 31 34 35 37 38 40 40 41 42 43
31 30 30 30 31 32 29 25 25 28 31 32 32 32 33 34 33 32 31 29 28 28 28 28 26 22 20 20 20 19 18 19 20 21 22 21 20 19 19 18 17 16 15 15 14 15 16 16 16 16 14 14 14 15 15 15 14 14 14 15 17 18 19 19 20 20 21 21 22 22 23 24 25 27 30 32 35 36 38 40 41 42 43 43 44
34 34 34 33 34 35 32 27 26 29 31 32 32 32 33 35 34 33 30 28 27 28 29 28 25 21 20 19 20 19 19 20 21 22 21 21 20 20 19 17 17 16 16 16 15 15 15 15 15 15 14 14 14 15 15 14 14 14 15 16 17 18 19 20 21 21 22 22 23 23 24 25 26 29 31 33 35 38 39 41 42 43 44 45 45
Wind_Direction
29 12 356 345 340 338 339 345 354 359 3 3 3 3 5 6 6 6 7 8 10 13 14 14 13 10 9 8 8 9 11 12 10 8 6 6 5 6 8 11 14 16 13 12 14 21 25 26 27 29 31 32 33 33 36 38 38 40 43 45 44 43 41 40 40 38 34 30 28 29 26 22 22 17 16 13 6 1 1 360 355 353 350 345 342
321 346 337 331 331 334 338 342 351 357 0 0 360 0 2 3 2 2 2 2 3 5 7 9 7 5 4 4 7 9 9 10 10 8 7 6 5 5 7 9 10 13 12 10 10 13 19 21 24 26 30 33 34 34 37 40 42 43 45 46 45 41 38 36 34 32 29 28 26 26 22 18 17 11 7 6 3 0 358 357 353 349 346 343 340
301 325 327 322 322 327 332 338 346 351 356 357 357 358 360 0 359 358 358 357 357 358 1 3 2 1 359 359 3 7 7 7 9 7 7 7 4 5 6 7 8 9 10 9 6 7 12 16 20 23 28 32 34 34 35 38 40 40 40 40 39 36 34 32 27 24 22 22 20 18 12 10 15 6 357 357 0 1 357 353 350 346 343 340 337
306 323 329 325 323 324 326 331 340 345 349 352 354 356 358 358 356 356 355 354 353 354 356 357 357 356 356 355 359 3 6 5 7 6 5 7 4 3 4 6 6 5 7 7 4 3 7 12 15 19 23 28 30 30 30 32 33 33 33 34 35 31 30 27 20 18 17 17 15 11 6 6 10 358 347 349 356 360 355 348 344 341 337 335 333
320 334 334 333 331 328 326 325 333 339 343 347 352 354 356 355 354 354 353 354 353 353 353 353 352 351 351 351 354 359 3 3 4 5 3 4 4 3 3 4 4 3 3 4 2 0 4 8 11 14 18 21 23 23 23 22 21 23 25 30 34 25 20 21 16 16 14 13 11 7 7 6 2 350 341 346 354 355 347 337 333 330 330 330 329
343 342 337 338 340 334 329 324 328 334 339 343 348 352 354 353 352 352 352 354 355 354 354 352 349 347 348 348 351 356 1 2 2 3 2 1 1 2 3 3 3 2 360 359 360 359 0 4 8 10 12 15 16 17 17 13 8 12 18 25 29 13 10 16 13 12 10 8 6 3 5 4 355 343 338 345 352 348 339 329 324 322 324 327 328
339 331 334 338 341 338 331 326 326 330 337 340 344 347 351 351 349 350 352 355 357 357 358 355 349 345 345 346 348 353 357 359 1 1 359 358 357 359 2 3 3 2 358 356 357 357 358 1 5 6 8 8 10 12 11 5 356 0 8 15 18 6 5 10 9 8 5 4 3 357 357 358 349 337 334 341 345 341 334 326 322 321 323 326 327
317 314 324 330 334 334 331 328 325 327 334 338 340 342 346 348 348 349 352 356 360 3 4 4 354 345 345 345 344 348 351 355 359 358 356 354 354 356 359 2 2 2 359 356 355 354 355 358 1 3 3 2 5 8 4 355 345 351 357 2 7 2 1 3 4 4 1 359 356 350 349 350 344 334 331 334 336 335 330 324 321 320 321 323 324
300 305 312 318 323 327 327 326 324 325 329 334 336 337 341 344 345 347 352 358 4 9 11 13 2 348 346 346 343 342 344 350 354 354 353 350 350 352 355 359 1 2 360 356 354 353 353 355 357 359 358 357 1 2 356 343 335 343 348 350 357 357 355 355 357 357 353 349 346 344 342 341 339 333 329 329 330 330 326 320 317 315 317 318 320
289 295 304 308 315 319 321 322 321 322 325 330 331 333 337 340 342 346 353 1 10 15 16 18 9 355 350 349 345 342 342 346 349 349 348 346 346 348 350 355 359 1 360 356 353 352 353 353 355 356 354 355 357 355 348 336 329 336 342 344 350 350 346 345 347 347 344 341 339 338 336 336 337 331 328 327 326 326 322 317 314 313 314 316 317
278 287 293 300 311 315 315 317 316 319 321 324 325 328 333 336 340 345 353 2 13 19 19 19 14 3 355 353 350 344 342 342 343 343 343 342 342 344 346 350 354 357 356 354 353 353 353 353 354 354 352 353 352 347 343 333 324 329 338 341 344 342 337 337 339 337 336 335 334 333 332 333 331 328 327 325 322 320 317 314 312 310 311 313 315
266 275 282 294 308 312 310 311 312 315 316 317 320 324 329 333 338 344 351 1 13 20 21 20 16 9 1 357 353 347 341 338 338 337 338 338 338 340 341 345 349 350 352 352 352 353 354 353 353 353 350 349 347 342 341 331 319 323 335 337 336 332 327 329 331 329 329 329 328 327 327 327 325 324 324 323 320 316 313 311 308 308 309 311 314
263 267 275 293 305 307 305 305 306 309 309 310 314 319 325 330 335 343 350 359 11 18 20 19 17 12 5 360 356 352 346 340 337 335 333 333 333 335 337 340 344 344 347 349 350 352 352 352 351 351 347 343 343 344 344 329 316 321 330 330 325 322 321 323 323 323 323 323 324 322 322 322 321 322 322 321 318 314 311 309 308 309 311 313 315
264 266 274 292 299 299 300 299 299 301 301 303 308 314 319 326 332 340 350 359 9 16 18 17 15 11 6 2 1 359 353 347 341 335 331 329 329 330 332 336 338 340 342 345 346 347 348 349 349 348 342 338 341 348 348 326 316 321 326 325 320 318 319 319 319 320 321 320 320 319 319 319 319 320 320 319 316 314 311 310 310 311 312 313 314
264 265 277 288 290 294 297 295 295 296 295 297 301 308 314 320 325 329 338 347 357 4 9 11 10 7 3 1 2 3 358 352 346 340 335 330 328 327 328 330 333 335 337 339 339 340 342 344 345 342 337 336 339 347 344 321 317 323 323 321 315 314 315 315 317 318 318 317 317 316 316 316 317 317 317 315 313 312 310 310 310 310 311 311 311
259 263 275 281 286 294 297 294 292 292 291 292 295 302 309 317 322 323 326 330 336 341 348 353 357 358 357 357 358 1 359 355 352 348 344 339 333 327 326 327 328 331 332 332 332 333 336 338 337 335 332 332 334 340 334 317 319 323 320 316 310 309 311 312 314 314 314 314 314 314 314 313 313 313 312 311 310 308 307 307 307 308 308 308 309
254 262 270 275 287 293 293 292 290 289 287 287 290 295 303 314 321 324 327 328 329 331 334 335 337 341 345 349 351 354 356 354 354 354 353 347 337 330 326 325 325 326 327 326 327 328 329 329 327 327 328 328 329 330 322 313 316 319 315 310 306 306 307 309 310 310 311 311 312 311 311 310 309 310 309 308 307 305 304 304 304 304 306 307 308
254 262 267 274 282 284 286 288 286 285 283 282 285 290 298 309 318 323 326 327 327 327 329 329 327 328 331 336 339 343 348 350 350 352 352 345 337 329 324 321 321 321 322 321 321 321 320 320 320 321 323 322 322 320 313 310 314 316 311 305 304 305 306 308 308 309 310 309 308 308 308 308 308 308 307 305 304 303 302 302 302 304 306 307 308
253 259 264 269 271 272 279 282 282 281 280 279 281 287 295 304 313 320 324 325 326 326 326 325 323 323 325 326 326 330 338 342 342 344 344 338 331 324 318 315 315 316 315 314 313 312 313 314 315 317 318 318 317 314 308 309 314 314 309 305 305 307 307 308 307 308 308 307 306 306 307 307 307 306 304 303 302 302 302 302 304 306 307 309 310
249 257 261 262 260 263 269 274 276 278 279 280 281 286 293 301 309 315 321 324 326 327 325 323 321 322 324 324 322 323 329 332 331 333 334 328 321 314 310 308 309 310 308 306 304 305 308 311 313 314 314 314 315 311 306 309 313 310 307 305 307 309 307 306 307 307 306 305 306 307 307 306 305 304 303 302 302 303 303 304 306 308 310 312 313
253 262 260 257 260 261 259 259 266 274 282 285 285 288 293 299 306 310 316 322 327 328 326 323 320 320 323 324 324 323 325 325 323 323 322 319 312 303 299 299 301 301 301 300 299 301 304 309 310 310 309 310 313 308 304 307 309 305 302 303 305 305 304 305 306 305 304 304 305 306 306 305 304 303 302 301 303 304 305 307 309 312 314 315 315
262 267 258 258 267 266 255 250 256 267 281 289 290 291 294 297 301 305 311 320 326 327 326 322 319 319 321 323 324 324 322 319 317 315 313 312 303 291 288 290 292 293 295 296 295 297 301 306 307 307 306 308 310 303 299 301 301 299 298 298 300 301 302 303 303 303 302 303 305 306 305 305 304 303 301 303 306 307 308 311 314 315 315 315 315
266 266 258 261 270 270 260 253 255 263 277 287 290 291 294 295 297 300 306 317 324 325 324 321 318 317 318 322 324 322 319 315 313 311 310 308 297 286 284 286 288 288 290 290 291 295 300 303 304 303 303 304 305 297 293 294 294 294 292 293 296 299 301 301 301 301 302 305 306 306 306 306 304 303 303 306 311 312 313 314 315 315 315 315 315
265 262 260 265 271 271 266 260 259 265 277 285 288 290 292 292 292 294 303 315 322 323 321 319 316 315 316 320 322 319 314 311 310 310 308 303 295 287 287 287 287 285 283 286 292 298 301 302 302 300 299 300 298 290 287 287 287 288 287 289 295 300 301 301 300 301 304 308 308 307 306 306 305 305 307 312 315 315 315 315 315 315 315 315 317
260 261 264 268 269 267 267 265 262 265 274 284 287 287 288 288 288 290 298 311 318 319 318 317 315 314 315 318 318 314 310 308 309 310 307 304 299 291 289 288 285 282 281 287 296 300 301 302 302 299 296 295 291 285 283 284 283 284 284 288 298 303 303 301 301 302 307 309 308 307 307 308 308 309 312 316 317 316 315 315 315 315 315 317 319
257 263 266 267 265 264 267 267 264 266 272 282 288 286 284 286 287 288 295 306 312 314 315 316 315 313 314 315 313 308 306 307 309 309 309 308 305 296 291 287 283 280 284 294 300 301 301 303 303 299 295 290 283 281 282 283 283 281 281 290 300 300 300 301 302 304 308 308 307 309 311 311 310 312 315 317 318 316 316 316 316 317 318 321 321
258 263 262 262 263 264 267 267 266 267 271 280 287 285 284 285 287 291 296 304 309 311 314 316 316 313 313 312 307 303 303 306 310 312 312 311 307 298 291 287 282 281 288 299 304 304 303 303 303 300 293 285 279 278 280 281 280 276 279 291 296 295 298 301 302 305 307 307 308 312 313 312 312 314 316 318 318 317 316 317 318 321 323 324 323
254 257 257 259 263 264 265 267 268 268 270 278 284 282 281 283 287 293 299 304 308 311 314 317 316 313 312 309 304 301 302 306 311 314 314 311 305 297 291 285 282 286 295 304 307 306 304 304 303 300 293 285 279 277 277 277 274 272 280 289 291 294 299 300 301 304 306 307 310 312 312 312 313 314 316 317 316 316 318 321 323 325 326 325 323
243 249 258 264 263 261 263 267 268 268 269 275 280 279 278 281 287 294 299 305 309 312 316 319 316 313 310 306 301 300 301 306 310 312 312 308 302 296 290 285 285 292 303 307 305 304 304 303 301 298 294 285 279 277 275 273 270 271 281 289 292 295 297 297 300 303 305 308 311 311 311 311 312 314 315 316 317 318 322 326 328 327 326 325 325
236 248 260 264 263 261 265 267 267 266 269 272 273 274 275 280 286 292 297 304 310 315 319 319 316 312 309 305 300 299 301 304 307 307 306 302 297 293 288 285 287 296 305 301 297 300 303 302 298 297 295 287 279 275 272 269 267 272 284 291 293 295 294 295 298 301 305 308 310 309 309 310 312 314 316 317 320 324 328 329 329 327 327 327 327
232 246 254 258 260 263 266 265 262 262 265 268 267 268 271 276 284 290 296 303 311 317 322 320 316 312 308 305 301 299 300 302 302 301 299 296 292 290 287 285 286 294 298 293 292 300 302 299 297 299 297 288 278 271 269 265 266 276 288 292 293 292 292 294 297 301 305 307 308 308 309 310 313 315 317 320 324 328 330 329 328 328 329 330 330
229 242 249 253 259 264 266 261 257 258 260 264 263 262 265 270 277 286 295 304 311 320 325 323 318 313 308 305 302 299 299 299 298 296 294 291 288 288 286 283 284 288 288 286 293 300 300 297 297 299 299 291 278 270 266 261 266 280 289 290 290 289 291 294 298 302 305 305 306 307 308 311 313 317 320 323 326 329 329 329 329 331 332 334 334
228 239 248 252 259 263 262 256 253 254 256 261 261 259 261 264 271 281 293 302 311 321 327 325 320 314 309 306 302 299 298 297 294 293 290 286 286 286 283 282 283 283 281 283 294 301 299 296 296 298 298 293 282 272 261 256 269 283 285 286 287 288 291 295 300 303 304 304 305 307 309 312 315 318 321 323 326 328 328 329 331 333 335 337 337
231 238 246 251 255 257 253 251 252 253 253 257 261 261 260 260 267 278 290 301 310 319 324 324 320 314 310 306 301 297 296 293 291 289 285 282 283 282 280 282 284 282 278 280 291 299 299 296 293 294 297 293 285 273 254 252 272 281 280 282 284 287 291 295 300 302 302 303 306 309 311 313 315 318 321 323 326 327 329 331 333 336 338 339 338
235 239 244 246 247 247 245 246 251 254 255 256 259 262 260 260 267 279 291 301 310 317 321 321 318 313 310 306 302 298 294 291 289 285 280 279 279 278 281 286 288 284 280 280 287 296 297 294 292 293 295 290 282 271 256 259 274 279 276 277 280 284 288 292 297 299 299 303 307 309 310 312 315 318 321 324 326 327 330 332 335 337 338 338 337
240 240 237 236 236 238 240 243 250 255 257 256 257 260 262 264 270 281 291 301 309 314 317 317 314 312 310 308 305 300 294 290 287 282 278 277 277 278 284 288 288 286 283 282 285 291 292 292 292 292 292 287 280 270 265 269 274 273 273 274 276 279 283 288 292 294 297 302 306 307 309 312 315 318 321 324 326 328 331 334 336 337 337 336 336
239 236 227 227 229 234 239 244 250 255 258 258 257 259 263 267 272 281 291 300 307 311 314 314 312 311 311 311 308 302 296 290 285 281 279 277 277 281 286 287 286 286 285 284 285 286 287 288 289 289 287 284 280 274 273 275 272 271 273 273 273 276 280 284 286 290 296 300 303 305 307 310 314 317 321 325 327 330 332 335 337 336 335 334 335
229 223 218 223 228 235 241 247 251 254 258 260 261 262 265 270 275 282 291 299 304 309 312 313 312 313 313 313 310 304 297 291 285 282 278 276 278 282 285 285 283 284 286 285 284 282 282 283 284 286 283 277 277 276 275 276 273 272 274 273 271 273 275 278 282 289 295 298 300 303 306 308 311 316 321 325 328 330 334 336 337 336 334 334 334
214 213 216 224 230 238 243 248 252 254 258 262 264 265 267 272 277 284 291 295 300 307 312 314 314 314 314 314 310 305 298 291 286 280 275 274 278 281 283 282 281 283 286 285 281 278 277 278 280 281 279 274 273 272 271 274 274 273 273 271 269 269 271 276 282 289 293 296 299 301 304 306 310 316 321 325 328 331 334 336 336 335 334 334 334
206 209 217 227 234 240 244 248 252 254 257 261 263 264 267 273 278 284 287 288 294 304 309 312 314 314 314 313 309 304 297 291 285 279 275 276 280 282 281 280 280 283 286 283 278 275 275 276 277 278 275 271 271 270 269 272 271 270 270 268 266 266 269 276 283 289 292 295 297 299 300 304 310 317 322 325 328 331 334 335 334 334 335 334 334
204 209 218 229 235 239 242 248 251 252 255 258 260 262 268 272 277 283 284 284 293 303 306 308 311 312 312 310 306 300 294 289 284 279 278 280 282 282 281 280 280 283 284 281 275 273 274 277 277 276 272 269 268 268 269 269 267 266 266 263 263 265 269 276 283 288 292 293 294 295 299 304 312 320 324 326 328 331 332 333 333 334 335 334 333
206 211 219 226 230 236 241 247 249 251 254 255 256 261 268 274 280 284 284 286 296 304 304 305 308 310 309 308 304 297 291 287 283 281 282 284 285 284 282 280 280 282 283 279 274 271 272 275 275 274 273 271 267 266 267 266 264 263 260 258 260 265 271 278 283 287 289 291 292 295 301 308 316 322 325 326 328 330 331 332 332 333 333 334 333
207 213 220 225 230 235 240 246 249 251 253 253 255 262 271 278 282 283 285 290 298 302 301 301 305 308 307 306 303 295 288 284 282 283 284 285 285 284 282 281 281 282 281 279 274 270 270 273 275 277 277 275 271 268 266 263 261 259 256 256 260 267 274 280 283 286 289 292 295 299 306 313 319 323 325 327 329 330 330 330 330 331 332 333 332
206 213 220 227 233 235 239 245 250 254 255 254 257 265 273 277 279 281 285 291 296 298 297 298 303 308 306 303 301 294 285 282 282 284 286 286 285 284 283 282 283 282 281 280 276 270 268 273 280 285 285 279 273 269 264 260 259 257 255 257 264 270 277 281 283 287 292 295 298 304 311 316 320 323 326 329 330 330 329 329 329 329 331 332 332
206 213 220 225 230 232 237 244 251 254 257 258 262 269 273 275 278 282 285 289 293 294 293 295 302 306 305 300 296 291 284 282 282 284 286 286 285 284 284 285 285 284 282 281 279 272 267 274 283 287 286 280 272 265 261 259 258 256 256 260 267 274 279 281 284 290 295 298 301 306 313 317 320 324 327 330 330 329 328 329 329 329 330 331 331
208 212 218 221 224 228 237 246 251 253 255 260 267 272 275 277 280 281 283 286 290 290 290 294 299 304 303 297 292 287 283 282 282 283 284 284 284 284 285 286 287 287 286 284 281 274 269 276 283 283 282 277 267 260 258 258 255 254 258 264 271 277 280 282 287 293 297 300 303 308 314 318 320 324 328 330 329 328 328 328 328 329 330 330 330
213 213 216 218 223 232 244 251 251 253 255 261 268 272 275 277 277 277 280 285 286 286 288 292 297 300 299 294 290 285 281 280 281 281 281 281 282 284 285 286 286 287 286 283 281 273 271 277 281 279 276 267 259 259 258 255 254 256 261 268 274 279 281 284 290 296 300 301 305 310 314 318 321 325 328 328 327 326 327 328 328 328 329 329 328
218 218 223 227 234 242 249 250 248 251 256 262 268 271 272 272 272 276 281 283 283 284 287 291 295 297 295 290 287 283 279 278 278 278 278 278 280 283 284 284 284 283 282 279 277 273 273 277 278 275 270 260 254 258 258 256 256 259 264 270 275 279 282 286 293 298 301 302 305 310 314 317 321 325 327 325 324 325 326 326 327 328 328 328 328
220 225 235 240 245 250 251 250 249 250 254 262 267 269 270 269 272 278 280 280 280 282 285 290 293 293 289 285 284 281 278 276 276 276 276 277 280 282 283 281 280 279 277 275 272 270 271 273 275 274 267 260 257 257 257 256 257 260 265 270 275 279 283 289 295 300 302 302 305 309 313 317 321 324 324 323 323 324 325 325 326 327 327 327 327
226 235 243 243 245 251 254 255 256 253 253 259 265 269 269 269 274 278 277 276 278 280 284 289 291 288 283 281 281 279 276 274 273 273 274 278 281 282 281 278 277 276 275 274 271 268 267 266 269 272 266 259 258 258 256 255 257 260 265 270 275 280 284 290 296 300 301 303 306 309 312 316 321 322 321 321 322 323 324 325 326 326 326 326 327
234 242 244 243 246 253 258 259 258 254 253 257 263 267 268 270 275 276 273 274 276 279 284 287 287 283 278 278 278 274 272 271 271 272 275 279 282 281 279 276 275 276 277 276 273 270 269 266 266 270 266 257 256 258 256 254 256 260 265 271 276 281 286 291 297 300 301 303 306 308 312 316 319 319 319 320 322 322 323 325 326 326 326 326 327
Height
5888 5888 5887 5887 5887 5887 5886 5886 5886 5885 5885 5884 5884 5883 5883 5883 5882 5881 5880 5879 5878 5878 5878 5877 5877 5876 5876 5876 5875 5874 5873 5873 5872 5872 5871 5870 5870 5869 5869 5868 5868 5867 5867 5867 5866 5866 5865 5865 5864 5863 5863 5863 5862 5862 5861 5860 5860 5860 5860 5860 5860 5860 5860 5860 5859 5859 5859 5858 5858 5858 5858 5858 5858 5858 5857 5857 5857 5856 5856 5855 5855 5854 5854 5853 5853
5887 5887 5887 5887 5886 5886 5886 5886 5885 5885 5884 5884 5884 5883 5883 5883 5882 5881 5880 5879 5878 5878 5878 5877 5877 5876 5876 5875 5875 5874 5874 5873 5873 5872 5871 5871 5870 5870 5869 5869 5868 5868 5868 5867 5867 5867 5866 5865 5865 5864 5864 5863 5863 5862 5861 5861 5860 5860 5860 5860 5860 5860 5860 5860 5860 5859 5859 5859 5858 5858 5858 5858 5858 5858 5857 5857 5857 5856 5855 5855 5854 5854 5853 5853 5852
5886 5886 5886 5886 5886 5886 5885 5885 5885 5885 5885 5884 5884 5883 5883 5882 5882 5881 5880 5879 5879 5878 5878 5878 5877 5877 5876 5875 5875 5874 5873 5873 5873 5872 5871 5871 5870 5870 5869 5869 5869 5868 5868 5868 5868 5867 5867 5866 5865 5865 5864 5864 5863 5863 5862 5861 5861 5860 5860 5860 5860 5860 5860 5860 5860 5859 5859 5859 5859 5858 5858 5858 5858 5858 5857 5857 5856 5856 5855 5854 5854 5854 5853 5852 5852
5886 5886 5886 5886 5885 5885 5885 5884 5884 5884 5884 5884 5884 5883 5883 5882 5882 5881 5880 5879 5878 5878 5878 5877 5877 5877 5876 5875 5875 5874 5873 5873 5872 5872 5871 5871 5870 5870 5869 5869 5869 5869 5869 5868 5868 5868 5867 5867 5866 5865 5865 5864 5864 5863 5862 5862 5861 5861 5861 5860 5860 5860 5860 5860 5860 5860 5859 5859 5859 5858 5858 5858 5857 5857 5857 5856 5856 5855 5855 5854 5854 5853 5853 5852 5851
5886 5886 5886 5885 5885 5884 5884 5884 5884 5884 5884 5884 5884 5883 5882 5882 5881 5881 5880 5879 5878 5878 5877 5877 5877 5876 5876 5875 5875 5874 5873 5872 5872 5872 5871 5871 5870 5870 5870 5869 5869 5869 5869 5869 5868 5868 5868 5867 5866 5866 5865 5865 5864 5863 5863 5862 5861 5861 5861 5861 5861 5860 5860 5860 5860 5860 5859 5859 5859 5858 5858 5857 5857 5857 5857 5856 5855 5854 5854 5854 5854 5853 5853 5852 5851
5885 5885 5885 5885 5884 5884 5883 5883 5883 5883 5884 5884 5883 5883 5882 5882 5881 5881 5880 5879 5878 5877 5877 5876 5876 5876 5876 5875 5875 5874 5873 5872 5872 5872 5871 5871 5871 5870 5870 5869 5869 5869 5869 5869 5868 5868 5868 5867 5867 5866 5866 5865 5864 5864 5863 5862 5861 5861 5861 5861 5861 5860 5860 5860 5860 5859 5859 5859 5858 5858 5857 5857 5857 5857 5856 5855 5854 5854 5854 5853 5853 5853 5852 5851 5850
5884 5885 5885 5885 5884 5883 5883 5882 5882 5883 5883 5883 5883 5883 5882 5882 5881 5880 5879 5878 5878 5877 5877 5876 5876 5875 5875 5875 5875 5874 5873 5872 5872 5872 5872 5871 5871 5870 5870 5869 5869 5869 5869 5868 5868 5868 5868 5867 5867 5866 5866 5865 5864 5864 5863 5862 5861 5861 5861 5861 5861 5860 5860 5860 5859 5859 5859 5858 5858 5858 5857 5857 5856 5856 5856 5855 5854 5853 5853 5853 5852 5852 5851 5851 5850
5884 5884 5884 5884 5883 5883 5882 5882 5882 5882 5882 5882 5882 5882 5882 5882 5881 5880 5879 5878 5877 5877 5876 5876 5875 5875 5875 5875 5875 5874 5873 5873 5872 5872 5872 5871 5871 5870 5870 5869 5869 5869 5869 5868 5868 5868 5868 5867 5867 5866 5866 5865 5864 5863 5863 5862 5861 5861 5861 5861 5861 5860 5860 5859 5859 5858 5858 5858 5858 5857 5857 5856 5856 5855 5855 5854 5853 5853 5852 5852 5851 5850 5850 5849 5848
5884 5884 5884 5883 5883 5882 5882 5882 5882 5882 5882 5882 5882 5881 5881 5881 5881 5880 5879 5878 5877 5876 5876 5876 5875 5875 5875 5875 5875 5874 5874 5873 5872 5872 5871 5871 5871 5870 5870 5869 5869 5869 5868 5868 5868 5868 5867 5867 5867 5866 5866 5865 5864 5863 5863 5862 5861 5861 5860 5860 5860 5860 5859 5859 5858 5858 5858 5858 5857 5857 5856 5856 5855 5855 5854 5853 5852 5852 5851 5851 5850 5849 5848 5848 5847
5883 5883 5883 5883 5882 5882 5881 5881 5881 5881 5881 5881 5881 5881 5881 5881 5881 5880 5879 5878 5877 5876 5876 5875 5875 5875 5875 5875 5874 5874 5873 5873 5872 5872 5871 5871 5870 5870 5870 5869 5869 5868 5868 5868 5867 5867 5867 5867 5867 5866 5866 5865 5864 5864 5863 5862 5861 5860 5860 5859 5860 5859 5859 5858 5858 5858 5857 5857 5857 5856 5855 5855 5854 5854 5853 5852 5852 5851 5850 5850 5849 5848 5847 5846 5845
5883 5883 5883 5882 5882 5881 5881 5881 5881 5881 5881 5881 5881 5881 5881 5881 5881 5880 5879 5878 5877 5876 5876 5875 5875 5875 5875 5875 5874 5874 5873 5873 5872 5871 5871 5870 5870 5870 5870 5869 5869 5868 5868 5867 5867 5867 5867 5867 5867 5866 5865 5865 5864 5864 5863 5862 5860 5860 5860 5859 5859 5859 5859 5858 5858 5857 5856 5856 5856 5855 5854 5854 5853 5853 5852 5851 5851 5850 5849 5849 5848 5847 5846 5845 5844
5882 5882 5882 5882 5882 5881 5881 5880 5880 5880 5880 5880 5881 5881 5881 5881 5881 5880 5879 5878 5877 5876 5876 5875 5875 5875 5874 5874 5874 5873 5873 5872 5872 5871 5871 5870 5870 5870 5869 5869 5869 5868 5868 5867 5867 5867 5867 5867 5867 5866 5865 5864 5864 5864 5863 5862 5860 5860 5860 5859 5859 5858 5858 5858 5857 5857 5856 5856 5855 5854 5854 5853 5853 5852 5851 5850 5850 5849 5848 5848 5846 5845 5844 5844 5843
5881 5882 5882 5881 5881 5880 5880 5880 5879 5879 5880 5880 5880 5881 5881 5881 5881 5880 5879 5878 5877 5876 5875 5875 5875 5875 5874 5874 5873 5873 5872 5872 5871 5871 5870 5870 5870 5869 5869 5869 5868 5868 5867 5867 5867 5867 5866 5866 5866 5866 5865 5864 5864 5864 5863 5861 5860 5859 5860 5859 5858 5858 5857 5857 5857 5856 5856 5855 5855 5854 5853 5853 5852 5851 5850 5849 5849 5848 5847 5846 5845 5844 5843 5842 5841
5881 5881 5881 5881 5880 5880 5880 5879 5879 5879 5879 5880 5880 5880 5880 5880 5881 5880 5879 5878 5877 5876 5875 5875 5875 5874 5874 5873 5873 5872 5872 5871 5871 5870 5870 5870 5869 5869 5869 5868 5868 5868 5867 5867 5866 5866 5866 5866 5866 5865 5865 5864 5864 5863 5863 5861 5860 5859 5859 5859 5858 5857 5857 5856 5856 5855 5855 5854 5854 5853 5852 5852 5851 5850 5849 5848 5848 5847 5846 5844 5843 5842 5841 5840 5839
5879 5880 5880 5880 5880 5880 5879 5879 5879 5879 5879 5879 5879 5880 5880 5880 5880 5880 5879 5878 5877 5876 5875 5875 5874 5873 5873 5872 5872 5872 5872 5871 5871 5870 5870 5869 5869 5869 5868 5868 5868 5868 5867 5867 5866 5865 5865 5865 5865 5865 5865 5864 5863 5863 5862 5860 5859 5859 5859 5859 5858 5857 5856 5855 5855 5854 5854 5853 5853 5852 5851 5851 5850 5849 5848 5847 5846 5845 5844 5843 5842 5840 5840 5839 5837
5878 5879 5879 5879 5879 5879 5879 5879 5879 5879 5879 5879 5879 5879 5879 5879 5880 5879 5879 5878 5877 5876 5875 5874 5874 5873 5872 5872 5872 5871 5871 5871 5870 5870 5870 5869 5869 5868 5868 5868 5868 5867 5867 5866 5865 5865 5864 5864 5864 5864 5864 5863 5863 5863 5862 5860 5859 5859 5858 5858 5857 5857 5856 5855 5854 5854 5853 5853 5852 5851 5851 5850 5849 5848 5847 5846 5846 5844 5843 5842 5840 5839 5838 5837 5836
5877 5877 5877 5878 5878 5878 5878 5878 5878 5878 5878 5878 5878 5878 5879 5879 5879 5879 5878 5877 5876 5875 5875 5874 5873 5872 5872 5872 5871 5871 5871 5871 5870 5870 5869 5869 5869 5868 5868 5867 5867 5867 5866 5866 5865 5864 5864 5864 5864 5864 5863 5863 5862 5862 5861 5859 5859 5858 5858 5857 5856 5856 5856 5855 5854 5853 5852 5852 5851 5851 5850 5849 5848 5847 5847 5846 5845 5843 5842 5841 5839 5838 5837 5836 5834
5876 5876 5876 5876 5877 5877 5877 5878 5878 5878 5878 5878 5878 5878 5878 5878 5878 5878 5877 5876 5876 5875 5874 5873 5872 5872 5871 5871 5871 5870 5870 5870 5870 5869 5869 5868 5868 5868 5867 5867 5866 5866 5865 5865 5864 5864 5863 5863 5863 5862 5862 5862 5861 5861 5860 5858 5858 5858 5857 5856 5856 5855 5855 5854 5853 5852 5852 5851 5851 5850 5849 5848 5848 5847 5846 5845 5843 5842 5841 5839 5838 5837 5836 5834 5833
5875 5875 5875 5875 5875 5876 5876 5877 5877 5877 5877 5877 5877 5878 5878 5878 5878 5877 5876 5875 5875 5874 5873 5872 5872 5871 5870 5870 5870 5870 5870 5869 5869 5869 5868 5868 5867 5867 5866 5866 5866 5865 5865 5864 5863 5863 5863 5862 5862 5861 5861 5861 5860 5860 5858 5857 5857 5857 5856 5856 5855 5854 5854 5853 5852 5852 5851 5850 5850 5849 5848 5847 5846 5846 5845 5844 5842 5841 5839 5838 5837 5835 5834 5833 5831
5873 5874 5874 5874 5874 5874 5875 5876 5876 5876 5876 5876 5877 5877 5877 5877 5877 5876 5875 5874 5874 5873 5873 5872 5871 5870 5870 5869 5869 5869 5869 5869 5868 5868 5867 5867 5866 5866 5865 5865 5865 5864 5864 5863 5862 5862 5862 5861 5860 5860 5860 5859 5859 5858 5857 5856 5856 5856 5855 5855 5854 5854 5853 5852 5852 5851 5850 5849 5848 5848 5847 5846 5845 5845 5843 5842 5841 5839 5837 5836 5835 5834 5833 5831 5830
5872 5872 5872 5872 5873 5873 5874 5875 5875 5875 5875 5876 5876 5876 5877 5877 5876 5875 5875 5874 5873 5873 5872 5871 5870 5869 5869 5868 5868 5868 5868 5868 5867 5867 5866 5866 5865 5865 5864 5864 5864 5863 5863 5862 5861 5861 5860 5860 5859 5858 5858 5858 5858 5857 5855 5855 5855 5855 5854 5854 5853 5853 5852 5852 5851 5850 5849 5848 5847 5847 5846 5845 5844 5843 5842 5841 5839 5838 5836 5835 5833 5832 5831 5830 5828
5871 5871 5871 5871 5872 5872 5873 5873 5873 5874 5874 5875 5875 5875 5876 5876 5875 5875 5874 5873 5872 5872 5871 5870 5869 5868 5868 5867 5867 5867 5867 5867 5866 5866 5865 5865 5864 5864 5863 5863 5862 5862 5861 5861 5860 5860 5859 5858 5858 5857 5857 5857 5857 5855 5854 5854 5854 5853 5853 5853 5852 5852 5851 5851 5850 5849 5848 5847 5846 5846 5845 5844 5843 5841 5840 5839 5838 5836 5835 5833 5832 5831 5829 5828 5827
5870 5870 5870 5870 5870 5871 5871 5872 5872 5872 5873 5873 5874 5874 5875 5875 5874 5874 5873 5873 5872 5871 5870 5869 5868 5867 5867 5866 5866 5866 5866 5866 5865 5865 5864 5864 5863 5863 5862 5862 5861 5861 5860 5860 5859 5858 5858 5857 5856 5856 5855 5856 5855 5854 5852 5852 5852 5852 5851 5851 5851 5851 5850 5849 5849 5848 5847 5846 5845 5844 5843 5842 5841 5840 5839 5838 5837 5835 5833 5832 5831 5830 5828 5827 5825
5868 5868 5868 5868 5868 5869 5869 5870 5870 5871 5871 5872 5873 5873 5874 5874 5873 5873 5872 5872 5871 5870 5869 5868 5868 5867 5866 5865 5865 5865 5864 5864 5864 5863 5863 5863 5862 5862 5861 5861 5860 5860 5859 5858 5858 5857 5856 5856 5855 5854 5854 5854 5854 5852 5851 5851 5851 5850 5850 5849 5849 5849 5849 5848 5847 5846 5845 5845 5844 5843 5842 5841 5839 5838 5837 5837 5836 5834 5833 5831 5830 5828 5827 5825 5823
5865 5866 5866 5866 5866 5867 5867 5868 5868 5869 5870 5871 5872 5872 5873 5873 5872 5872 5872 5871 5870 5869 5868 5868 5867 5866 5865 5865 5864 5863 5863 5863 5862 5862 5861 5861 5861 5861 5860 5860 5859 5858 5858 5857 5857 5856 5855 5854 5854 5853 5853 5853 5852 5850 5849 5849 5849 5849 5848 5848 5848 5848 5848 5847 5845 5844 5844 5843 5842 5841 5840 5839 5838 5836 5836 5835 5835 5833 5832 5830 5829 5827 5825 5824 5822
5863 5863 5864 5864 5864 5865 5865 5866 5867 5868 5869 5870 5871 5871 5871 5871 5871 5871 5871 5870 5869 5868 5867 5867 5866 5865 5864 5863 5863 5862 5862 5861 5861 5860 5860 5860 5860 5859 5859 5858 5857 5857 5857 5856 5855 5855 5854 5853 5852 5852 5851 5851 5850 5849 5848 5847 5847 5847 5847 5847 5847 5847 5846 5845 5844 5843 5842 5841 5840 5839 5838 5837 5836 5835 5835 5834 5833 5832 5830 5829 5827 5826 5824 5822 5820
5861 5862 5862 5862 5862 5863 5864 5864 5865 5866 5867 5868 5869 5870 5870 5870 5870 5870 5870 5869 5868 5867 5866 5866 5865 5864 5863 5862 5861 5861 5860 5860 5859 5858 5858 5858 5858 5857 5857 5856 5856 5856 5855 5855 5854 5853 5852 5851 5850 5850 5850 5849 5848 5847 5846 5846 5846 5846 5845 5845 5845 5845 5844 5843 5842 5841 5841 5840 5839 5838 5837 5836 5835 5834 5834 5833 5832 5830 5829 5828 5826 5824 5822 5820 5818
5859 5859 5860 5860 5860 5861 5862 5862 5863 5865 5866 5867 5868 5868 5869 5869 5869 5869 5869 5868 5867 5866 5865 5864 5864 5863 5862 5861 5860 5859 5859 5858 5857 5857 5856 5856 5856 5856 5855 5855 5854 5854 5854 5853 5853 5852 5851 5850 5849 5849 5848 5848 5847 5845 5844 5844 5845 5844 5844 5844 5843 5843 5842 5842 5841 5840 5839 5838 5837 5837 5836 5835 5834 5833 5833 5832 5831 5829 5828 5826 5824 5822 5820 5818 5816
5856 5857 5858 5858 5859 5860 5861 5861 5861 5863 5864 5866 5867 5867 5868 5868 5868 5868 5868 5867 5865 5864 5864 5863 5863 5861 5860 5859 5859 5858 5857 5856 5856 5855 5855 5854 5854 5854 5854 5853 5853 5853 5852 5852 5851 5850 5849 5848 5847 5847 5846 5846 5845 5844 5843 5843 5843 5843 5843 5842 5842 5841 5841 5840 5839 5838 5838 5837 5836 5835 5835 5834 5833 5832 5831 5830 5829 5828 5826 5824 5822 5820 5818 5816 5814
5854 5855 5856 5856 5857 5858 5859 5859 5860 5861 5863 5864 5865 5866 5867 5867 5867 5867 5866 5865 5864 5863 5862 5862 5861 5860 5859 5858 5857 5856 5855 5855 5854 5853 5853 5853 5853 5852 5852 5852 5852 5851 5851 5850 5850 5849 5848 5846 5845 5845 5845 5844 5843 5842 5841 5841 5842 5841 5841 5841 5840 5840 5839 5838 5838 5837 5836 5835 5835 5834 5833 5833 5832 5831 5830 5829 5828 5826 5824 5822 5820 5818 5816 5814 5812
5852 5853 5854 5854 5855 5856 5857 5858 5858 5860 5861 5863 5864 5865 5865 5866 5866 5865 5865 5864 5863 5862 5861 5860 5860 5858 5857 5857 5856 5855 5854 5853 5852 5852 5852 5851 5851 5851 5851 5851 5850 5850 5849 5849 5848 5847 5846 5845 5843 5843 5843 5842 5841 5840 5840 5840 5840 5840 5840 5839 5838 5838 5837 5837 5836 5836 5835 5834 5833 5833 5832 5832 5831 5830 5829 5827 5826 5824 5822 5820 5819 5816 5814 5812 5810
5850 5850 5851 5852 5853 5854 5855 5856 5857 5858 5860 5861 5862 5863 5864 5864 5864 5864 5863 5862 5861 5860 5859 5858 5858 5857 5856 5855 5854 5853 5852 5851 5851 5850 5850 5850 5849 5849 5849 5849 5849 5848 5848 5847 5847 5846 5845 5843 5842 5842 5841 5840 5840 5839 5839 5839 5839 5838 5838 5837 5837 5836 5836 5835 5835 5834 5833 5833 5832 5832 5831 5831 5830 5828 5827 5826 5824 5822 5821 5819 5817 5815 5812 5810 5808
5847 5848 5849 5850 5851 5852 5854 5854 5855 5857 5858 5860 5861 5861 5862 5862 5862 5862 5861 5860 5859 5859 5858 5857 5856 5855 5854 5853 5852 5851 5850 5850 5849 5849 5848 5848 5848 5847 5847 5847 5847 5847 5846 5846 5846 5845 5844 5842 5841 5840 5839 5839 5838 5837 5838 5838 5838 5837 5836 5836 5835 5834 5834 5834 5833 5832 5832 5831 5831 5831 5830 5829 5828 5827 5826 5824 5823 5821 5820 5818 5815 5813 5811 5809 5806
5845 5846 5846 5847 5849 5851 5852 5853 5853 5855 5857 5858 5859 5859 5860 5860 5860 5860 5859 5858 5857 5857 5856 5855 5854 5853 5852 5851 5851 5850 5849 5848 5847 5847 5847 5846 5846 5846 5845 5845 5845 5845 5845 5845 5844 5843 5842 5841 5839 5839 5838 5837 5836 5836 5837 5837 5836 5835 5835 5834 5833 5832 5832 5832 5831 5831 5830 5830 5830 5829 5828 5828 5827 5826 5825 5823 5822 5820 5818 5816 5814 5812 5809 5807 5805
5844 5844 5844 5845 5847 5849 5850 5851 5851 5852 5854 5856 5857 5858 5858 5859 5859 5858 5857 5856 5855 5854 5854 5853 5852 5851 5850 5849 5849 5848 5847 5846 5845 5845 5845 5845 5844 5844 5843 5843 5843 5844 5843 5843 5842 5841 5840 5839 5838 5837 5836 5835 5835 5835 5835 5835 5834 5834 5833 5832 5832 5831 5831 5831 5830 5829 5829 5828 5828 5828 5827 5826 5825 5824 5823 5822 5820 5819 5817 5815 5812 5810 5808 5806 5804
5842 5841 5842 5843 5845 5847 5848 5849 5849 5850 5852 5854 5855 5856 5856 5857 5857 5856 5855 5854 5853 5852 5852 5851 5850 5849 5848 5847 5847 5846 5845 5844 5844 5844 5843 5843 5843 5842 5841 5841 5842 5842 5842 5841 5840 5840 5839 5837 5836 5835 5835 5834 5833 5834 5834 5833 5833 5832 5831 5831 5831 5831 5830 5830 5829 5828 5828 5827 5827 5826 5826 5825 5824 5823 5822 5820 5819 5817 5815 5813 5811 5809 5807 5805 5803
5840 5840 5840 5841 5843 5845 5846 5847 5847 5848 5850 5852 5853 5854 5854 5854 5855 5854 5853 5852 5851 5850 5850 5849 5848 5847 5846 5845 5844 5844 5843 5843 5842 5842 5841 5841 5841 5840 5840 5840 5840 5841 5840 5839 5838 5838 5837 5836 5835 5834 5833 5833 5833 5833 5832 5832 5831 5830 5830 5830 5830 5829 5829 5829 5828 5828 5827 5826 5826 5825 5824 5823 5822 5821 5820 5819 5817 5815 5813 5811 5809 5807 5805 5803 5801
5838 5839 5839 5839 5841 5843 5844 5845 5845 5846 5847 5849 5851 5852 5853 5852 5852 5852 5851 5850 5849 5848 5848 5847 5846 5845 5844 5843 5843 5842 5842 5841 5841 5840 5840 5839 5839 5838 5838 5838 5839 5839 5839 5838 5836 5836 5835 5834 5833 5832 5832 5832 5832 5831 5831 5830 5829 5829 5829 5829 5828 5828 5828 5827 5827 5826 5826 5825 5825 5824 5823 5822 5821 5820 5818 5817 5815 5814 5812 5810 5808 5806 5804 5802 5799
5836 5836 5837 5837 5839 5841 5842 5843 5844 5845 5846 5847 5849 5850 5850 5850 5850 5850 5850 5848 5847 5846 5846 5845 5844 5843 5843 5842 5841 5841 5840 5840 5839 5839 5839 5838 5838 5837 5837 5837 5837 5838 5837 5836 5835 5834 5833 5832 5832 5831 5830 5830 5830 5830 5829 5829 5828 5827 5827 5827 5827 5826 5826 5826 5826 5825 5824 5824 5823 5823 5822 5821 5820 5818 5817 5815 5814 5812 5810 5808 5806 5804 5802 5800 5797
5833 5834 5835 5836 5837 5839 5840 5841 5842 5844 5844 5845 5846 5847 5848 5847 5847 5848 5848 5847 5845 5844 5844 5843 5843 5842 5841 5840 5840 5840 5839 5838 5838 5837 5837 5837 5836 5836 5835 5836 5836 5836 5835 5834 5833 5832 5831 5831 5830 5829 5829 5829 5829 5828 5827 5827 5826 5826 5826 5825 5825 5825 5825 5825 5824 5824 5823 5822 5822 5821 5821 5820 5818 5817 5815 5814 5812 5810 5808 5806 5804 5802 5800 5798 5796
5829 5831 5833 5834 5835 5837 5838 5839 5841 5842 5843 5843 5844 5845 5845 5845 5845 5846 5846 5845 5843 5842 5842 5841 5841 5840 5840 5839 5839 5838 5837 5837 5836 5836 5835 5835 5835 5834 5834 5834 5834 5834 5833 5832 5831 5830 5829 5829 5828 5828 5828 5828 5828 5827 5826 5825 5824 5824 5824 5824 5824 5824 5824 5823 5823 5822 5822 5821 5821 5820 5819 5818 5817 5815 5813 5812 5810 5808 5806 5804 5802 5800 5798 5796 5793
5827 5829 5830 5831 5832 5834 5836 5838 5839 5840 5840 5841 5842 5843 5842 5842 5843 5843 5843 5843 5842 5840 5840 5839 5839 5839 5838 5838 5837 5836 5836 5835 5834 5834 5833 5833 5833 5832 5832 5832 5832 5832 5831 5830 5829 5828 5827 5827 5826 5826 5826 5826 5825 5825 5824 5823 5823 5823 5823 5823 5824 5823 5823 5822 5821 5821 5820 5820 5819 5818 5817 5816 5814 5813 5812 5810 5808 5806 5804 5802 5800 5798 5796 5794 5791
5824 5825 5827 5828 5830 5832 5834 5835 5836 5837 5838 5839 5840 5840 5840 5840 5841 5841 5841 5841 5840 5839 5838 5837 5837 5837 5836 5836 5835 5834 5834 5833 5832 5832 5832 5831 5831 5830 5830 5830 5830 5830 5829 5828 5827 5826 5825 5825 5825 5824 5824 5824 5823 5823 5822 5822 5822 5822 5822 5822 5822 5822 5821 5820 5820 5819 5819 5818 5817 5816 5815 5813 5812 5811 5810 5808 5806 5804 5802 5800 5798 5795 5793 5791 5789
5820 5822 5824 5826 5828 5830 5832 5833 5834 5835 5836 5837 5837 5838 5838 5838 5839 5839 5839 5839 5838 5837 5836 5835 5835 5835 5834 5833 5833 5832 5831 5831 5830 5830 5830 5829 5828 5828 5828 5828 5828 5828 5827 5826 5825 5824 5823 5823 5823 5822 5822 5822 5821 5821 5820 5820 5820 5820 5820 5821 5820 5820 5820 5819 5818 5818 5817 5816 5814 5813 5812 5811 5810 5809 5807 5806 5804 5802 5800 5797 5795 5793 5791 5789 5786
5816 5819 5822 5824 5826 5827 5829 5830 5831 5832 5833 5834 5835 5835 5835 5835 5836 5837 5837 5836 5836 5835 5834 5833 5833 5832 5832 5831 5830 5830 5829 5829 5828 5828 5827 5827 5826 5826 5826 5825 5825 5825 5825 5824 5823 5822 5821 5821 5820 5820 5820 5820 5819 5819 5819 5818 5818 5819 5819 5819 5819 5818 5818 5817 5816 5815 5814 5813 5812 5811 5810 5809 5807 5806 5805 5803 5801 5799 5797 5795 5792 5790 5788 5786 5783
5813 5817 5819 5821 5823 5824 5826 5827 5828 5829 5830 5831 5831 5832 5832 5833 5833 5834 5834 5834 5833 5832 5832 5831 5831 5830 5830 5829 5828 5827 5827 5827 5826 5826 5825 5825 5824 5824 5824 5823 5823 5823 5822 5822 5821 5820 5819 5819 5818 5818 5818 5818 5817 5817 5817 5817 5817 5817 5817 5817 5817 5816 5816 5815 5814 5813 5812 5811 5810 5809 5808 5807 5806 5804 5803 5801 5799 5796 5794 5792 5790 5788 5785 5783 5780
5810 5813 5816 5817 5819 5821 5822 5824 5825 5826 5827 5828 5828 5829 5829 5830 5831 5832 5832 5832 5831 5830 5829 5829 5828 5828 5827 5826 5826 5825 5825 5824 5824 5824 5824 5823 5822 5822 5822 5821 5821 5820 5820 5819 5818 5818 5817 5817 5817 5816 5816 5816 5815 5815 5815 5816 5816 5815 5815 5815 5814 5814 5814 5813 5812 5811 5810 5809 5808 5807 5806 5805 5804 5802 5800 5798 5796 5794 5792 5789 5787 5785 5783 5780 5777
5806 5809 5811 5814 5816 5818 5819 5820 5822 5823 5824 5825 5825 5826 5827 5828 5828 5829 5829 5829 5828 5827 5826 5826 5825 5825 5824 5824 5823 5822 5822 5822 5822 5822 5822 5821 5821 5820 5820 5819 5818 5818 5818 5817 5816 5816 5815 5815 5815 5815 5814 5814 5814 5814 5814 5814 5814 5813 5813 5813 5813 5812 5812 5811 5810 5809 5808 5807 5806 5805 5804 5803 5802 5800 5798 5796 5793 5791 5789 5787 5784 5782 5780 5777 5774
5802 5804 5807 5810 5811 5813 5815 5817 5818 5820 5821 5822 5822 5823 5824 5825 5826 5826 5826 5825 5825 5824 5823 5823 5822 5822 5821 5821 5820 5820 5820 5820 5820 5820 5820 5819 5818 5818 5818 5817 5816 5816 5815 5815 5814 5814 5813 5813 5813 5813 5812 5812 5812 5812 5812 5812 5811 5811 5811 5811 5811 5810 5810 5809 5808 5807 5806 5805 5804 5803 5802 5801 5799 5798 5796 5794 5791 5789 5787 5784 5782 5779 5777 5774 5771
5799 5801 5803 5805 5807 5809 5812 5814 5815 5817 5818 5818 5819 5820 5820 5821 5822 5823 5823 5822 5821 5821 5820 5819 5819 5819 5818 5818 5818 5818 5818 5818 5818 5818 5817 5817 5816 5816 5815 5815 5814 5814 5813 5813 5812 5812 5811 5811 5811 5810 5810 5810 5810 5810 5810 5809 5809 5809 5809 5809 5809 5808 5808 5807 5806 5805 5804 5803 5802 5801 5800 5799 5797 5796 5793 5791 5789 5787 5784 5782 5779 5776 5773 5771 5768
5794 5796 5799 5801 5803 5805 5808 5810 5812 5813 5814 5815 5816 5816 5817 5818 5819 5819 5819 5818 5818 5817 5817 5816 5816 5816 5816 5815 5815 5815 5816 5816 5816 5816 5815 5815 5814 5814 5813 5813 5813 5812 5811 5811 5810 5810 5810 5809 5809 5808 5808 5808 5808 5808 5808 5807 5807 5807 5807 5807 5807 5806 5806 5805 5804 5803 5802 5801 5800 5799 5798 5796 5795 5793 5791 5789 5787 5784 5781 5779 5776 5773 5770 5767 5765